This is the latest recevied weather packets stored in our database for station/object AB4KN. If no packets are shown the sender has not sent any weather packets the latest 10 day(s).
| Time | Temp. | Humidity | Pressure | Rain* | Wind** | Luminosity | Snow |
|---|---|---|---|---|---|---|---|
| 1778018175 | 26.11° C | 33% | 1018.6 hPa | 0 mm | - | 18 W/m² | - |
| 1778017873 | 26.11° C | 33% | 1018.4 hPa | 0 mm | - | 20 W/m² | - |
| 1778017571 | 26.67° C | 31% | 1018.6 hPa | 0 mm | - | 19 W/m² | - |
| 1778017268 | 26.67° C | 31% | 1018.3 hPa | 0 mm | - | 18 W/m² | - |
| 1778016966 | 26.67° C | 32% | 1018.5 hPa | 0 mm | - | 20 W/m² | - |
| 1778016662 | 26.11° C | 32% | 1018.9 hPa | 0 mm | - | 20 W/m² | - |
| 1778016358 | 26.11° C | 32% | 1018.6 hPa | 0 mm | - | 20 W/m² | - |
| 1778016056 | 26.67° C | 32% | 1018.5 hPa | 0 mm | - | 26 W/m² | - |
| 1778015753 | 26.67° C | 33% | 1018.5 hPa | 0 mm | - | 21 W/m² | - |
| 1778015450 | 26.67° C | 31% | 1018.6 hPa | 0 mm | - | 21 W/m² | - |
| 1778015146 | 26.67° C | 32% | 1018.5 hPa | 0 mm | - | 23 W/m² | - |
| 1778014844 | 26.11° C | 34% | 1018.6 hPa | 0 mm | - | 23 W/m² | - |
| 1778014541 | 26.67° C | 33% | 1018.6 hPa | 0 mm | - | 23 W/m² | - |
| 1778014238 | 26.67° C | 34% | 1018.7 hPa | 0 mm | - | 25 W/m² | - |
| 1778013936 | 26.11° C | 34% | 1018.8 hPa | 0 mm | - | 27 W/m² | - |
| 1778013633 | 26.11° C | 34% | 1018.8 hPa | 0 mm | - | 26 W/m² | - |
| 1778013329 | 26.11° C | 36% | 1019.1 hPa | 0 mm | - | 25 W/m² | - |
| 1778013027 | 26.11° C | 34% | 1019 hPa | 0 mm | - | 26 W/m² | - |
| 1778012722 | 26.11° C | 34% | 1019.3 hPa | 0 mm | - | 27 W/m² | - |
| 1778012418 | 26.11° C | 34% | 1018.9 hPa | 0 mm | - | 27 W/m² | - |
| 1778012116 | 26.11° C | 33% | 1019 hPa | 0 mm | - | 28 W/m² | - |
| 1778011813 | 26.11° C | 33% | 1019.1 hPa | 0 mm | - | 26 W/m² | - |
| 1778011511 | 26.11° C | 34% | 1019.3 hPa | 0 mm | - | 32 W/m² | - |
| 1778011208 | 26.11° C | 36% | 1019.4 hPa | 0 mm | - | 28 W/m² | - |
| 1778010904 | 26.11° C | 35% | 1019.6 hPa | 0 mm | - | 29 W/m² | - |
* Rain latest hour (hover to see other rain measurements)
** Current wind speed in m/s (hover to see current wind gust speed)